1288483228858,1.21839
1288483288858,1.21188
1288483348858,1.20806
1288483408858,1.20185
1288483468858,1.20149
1288483528858,1.20213
1288483588858,1.20662
1288483648858,1.21079
1288483708858,1.20698
1288483768858,1.20793
1288483828858,1.20207
1288483888858,1.20028
1288483948858,1.21827
1288484008858,1.20785
1288484068858,1.20568
1288484128858,1.20250
1288484188858,1.21679
1288484248858,1.21275
1288484308858,1.20742
1288484368858,1.21214
1288484428858,1.20571
1288484488858,1.21270
1288484548858,1.21413
1288484608858,1.20664
1288484668858,1.21306
1288484728858,1.20267
1288484788858,1.21496
1288484848858,1.20469
1288484908858,1.21561
1288484968858,1.20311
1288485028858,1.19873
1288485088858,1.20536
1288485148858,1.20945
1288485208858,1.20613
1288485268858,1.21080
1288485328858,1.21450
1288485388858,1.20853
1288485448858,1.20402
1288485508858,1.20732
1288485568858,1.19531
1288485628858,1.19801
1288485688858,1.20234
1288485748858,1.20365
1288485808858,1.20958
1288485868858,1.19895
1288485928858,1.20207
1288485988858,1.20758
1288486048858,1.20549
1288486108858,1.20092
1288486168858,1.21503
1288486228858,1.20559
1288486288858,1.20839
1288486348858,1.21326
1288486408858,1.20446
1288486468858,1.19784
1288486528858,1.19648
1288486588858,1.21101
1288486648858,1.21127
1288486708858,1.20662
1288486768858,1.23036
1288486828869,1.20379
1288486888869,1.20226
1288486948869,1.20092
1288487008869,1.20091
1288487068869,1.19515
1288487128869,1.20992
1288487188869,1.20995
1288487248869,1.19855
1288487308869,1.20986
1288487368869,1.20013
1288487428869,1.21586
1288487488869,1.20586
1288487548869,1.20307
1288487608869,1.20586
1288487668869,1.19944
1288487728869,1.25601
1288487788869,1.23503
1288487848869,1.20098
1288487908869,1.20546
1288487968869,1.20975
1288488028869,1.21528
1288488088869,1.20795
1288488148869,1.21159
1288488208869,1.22279
1288488268869,1.21278
1288488328869,1.21056
1288488388869,1.20932
1288488448869,1.22238
1288488508869,1.21774
1288488568869,1.21205
1288488628869,1.21416
1288488688869,1.21633
1288488748869,1.21908
1288488808869,1.20895
1288488868869,1.20195
1288488928869,1.19989
1288488988869,1.21566
1288489048869,1.21086
1288489108869,1.22010
1288489168869,1.21692
1288489228869,1.21584
1288489288869,1.20840
1288489348869,1.21784
1288489408869,1.22518
1288489468869,1.22215
1288489528869,1.20961
1288489588869,1.20456
1288489648869,1.20632
1288489708869,1.21799
1288489768869,1.21636
1288489828869,1.22133
1288489888869,1.20996
1288489948869,1.21620
1288490008869,1.20972
1288490068869,1.21718
1288490128869,1.21175
1288490188869,1.23650
1288490248869,1.21283
1288490308869,1.20887
1288490368869,1.20938
1288490428879,1.20415
1288490488879,1.23109
1288490548879,1.20979
1288490608879,1.21108
1288490668879,1.21898
1288490728879,1.21332
1288490788879,1.20891
1288490848879,1.21117
1288490908879,1.20778
1288490968879,1.19967
1288491028879,1.21904
1288491088879,1.20555
1288491148879,1.21123
1288491208879,1.21477
1288491268879,1.21701
1288491328879,1.20984
1288491388879,1.22402
1288491448879,1.21567
1288491508879,1.22301
1288491568879,1.22862
1288491628879,1.21748
1288491688879,1.22098
1288491748879,1.20473
1288491808879,1.20736
1288491868879,1.21797
1288491928879,1.21978
1288491988879,1.21030
1288492048879,1.22065
1288492108879,1.21996
1288492168879,1.22051
1288492228879,1.21728
1288492288879,1.21851
1288492348879,1.22110
1288492408879,1.21448
1288492468879,1.20738
1288492528879,1.21795
1288492588879,1.21273
1288492648879,1.22694
1288492708879,1.20787
1288492768879,1.20804
1288492828879,1.22143
1288492888879,1.21856
1288492948879,1.22519
1288493008879,1.21555
1288493068879,1.21522
1288493128879,1.21956
1288493188879,1.21092
1288493248879,1.21674
1288493308879,1.21150
1288493368879,1.22293
1288493428879,1.21561
1288493488879,1.20785
1288493548879,1.20825
1288493608879,1.20808
1288493668879,1.21620
1288493728879,1.21767
1288493788879,1.21807
1288493848879,1.20793
1288493908879,1.20607
1288493968879,1.22101
1288494028890,1.21891
1288494088890,1.22251
1288494148890,1.21221
1288494208890,1.22040
1288494268890,1.24256
1288494328890,1.21113
1288494388890,1.21210
1288494448890,1.20371
1288494508890,1.20843
1288494568890,1.20664
1288494628890,1.21549
1288494688890,1.21561
1288494748890,1.21503
1288494808890,1.21830
1288494868890,1.21175
1288494928890,1.20919
1288494988890,1.22777
1288495048890,1.22486
1288495108890,1.23086
1288495168890,1.21539
1288495228890,1.22925
1288495288890,1.23235
1288495348890,1.23333
1288495408890,1.22096
1288495468890,1.23293
1288495528890,1.21822
1288495588890,1.23003
1288495648890,1.22986
1288495708890,1.22076
1288495768890,1.22781
1288495828890,1.21783
1288495888890,1.22461
1288495948890,1.22369
1288496008890,1.21906
1288496068890,1.18577
1288496128890,1.21930
1288496188890,1.21380
1288496248890,1.21162
1288496308890,1.22598
1288496368890,1.21281
1288496428890,1.21380
1288496488890,1.21894
1288496548890,1.21865
1288496608890,1.20788
1288496668890,1.20287
1288496728890,1.21452
1288496788890,1.21819
1288496848890,1.22210
1288496908890,1.22224
1288496968890,1.22655
1288497028890,1.21172
1288497088890,1.21950
1288497148890,1.21651
1288497208890,1.21768
1288497268890,1.21598
1288497328890,1.21511
1288497388890,1.21761
1288497448890,1.22092
1288497508890,1.21502
1288497568890,1.21539
1288497628900,1.22221
1288497688900,1.23173
1288497748900,1.21860
1288497808900,1.21178
1288497868900,1.21536
1288497928900,1.21976
1288497988900,1.21478
1288498048900,1.22449
1288498108900,1.22956
1288498168900,1.23640
1288498228900,1.22035
1288498288900,1.20702
1288498348900,1.22793
1288498408900,1.22285
1288498468900,1.22456
1288498528900,1.22332
1288498588900,1.22689
1288498648900,1.23264
1288498708900,1.21955
1288498768900,1.21581
1288498828900,1.21573
1288498888900,1.21263
1288498948900,1.21705
1288499008900,1.21690
1288499068900,1.22232
1288499128900,1.21680
1288499188900,1.23623
1288499248900,1.21862
1288499308900,1.22798
1288499368900,1.23398
1288499428900,1.25461
1288499488900,1.24394
1288499548900,1.24772
1288499608900,1.25927
1288499668900,1.27159
1288499728900,1.27294
1288499788900,1.27536
1288499848900,1.28009
1288499908900,1.28087
1288499968900,1.27253
1288500028900,1.27484
1288500088900,1.26303
1288500148900,1.27290
1288500208900,1.26836
1288500268900,1.25283
1288500328900,1.25437
1288500388900,1.25993
1288500448900,1.25965
1288500508900,1.26047
1288500568900,1.27445
1288500628900,1.25635
1288500688900,1.26176
1288500748900,1.25306
1288500808900,1.25250
1288500868900,1.25571
1288500928900,1.25398
1288500988900,1.25747
1288501048900,1.26892
1288501108900,1.25065
1288501168900,1.25654
1288501228910,1.26566
1288501288910,1.25481
1288501348910,1.26061
1288501408910,1.26097
1288501468910,1.25674
1288501528910,1.25013
1288501588910,1.25071
1288501648910,1.25431
1288501708910,1.25427
1288501768910,1.27024
1288501828910,1.25140
1288501888910,1.25422
1288501948910,1.24861
1288502008910,1.24638
1288502068910,1.24563
1288502128910,1.25071
1288502188910,1.25013
1288502248910,1.25390
1288502308910,1.24038
1288502368910,1.24546
1288502428910,1.24110
1288502488910,1.24962
1288502548910,1.24206
1288502608910,1.24629
1288502668910,1.23890
1288502728910,1.24161
1288502788910,1.23129
1288502848910,1.23359
1288502908910,1.23766
1288502968910,1.23765
1288503028910,1.24957
1288503088910,1.23779
1288503148910,1.23641
1288503208910,1.23308
1288503268910,1.23738
1288503328910,1.23876
1288503388910,1.22776
1288503448910,1.24645
1288503508910,1.24482
1288503568910,1.22891
1288503628910,1.23752
1288503688910,1.22756
1288503748910,1.23555
1288503808910,1.23101
1288503868910,1.22160
1288503928910,1.23066
1288503988910,1.23218
1288504048910,1.23374
1288504108910,1.23376
1288504168910,1.24381
1288504228910,1.24349
1288504288910,1.24418
1288504348910,1.22825
1288504408910,1.23662
1288504468910,1.23424
1288504528910,1.24594
1288504588910,1.23109
1288504648910,1.22712
1288504708910,1.23272
1288504768910,1.23009
1288504828920,1.22620
1288504888920,1.23373
1288504948920,1.23724
1288505008920,1.22360
1288505068920,1.22184
1288505128920,1.23297
1288505188920,1.22710
1288505248920,1.23185
1288505308920,1.21832
1288505368920,1.21732
1288505428920,1.23130
1288505488920,1.21964
1288505548920,1.22731
1288505608920,1.22680
1288505668920,1.22532
1288505728920,1.22672
1288505788920,1.22259
1288505848920,1.22218
1288505908920,1.22421
1288505968920,1.21631
1288506028920,1.22424
1288506088920,1.22680
1288506148920,1.22908
1288506208920,1.22290
1288506268920,1.21789
1288506328920,1.22007
1288506388920,1.22615
1288506448920,1.21706
1288506508920,1.22197
1288506568920,1.22241
1288506628920,1.22462
1288506688920,1.21362
1288506748920,1.21602
1288506808920,1.23210
1288506868920,1.22624
1288506928920,1.21930
1288506988920,1.22076
1288507048920,1.22190
1288507108920,1.22540
1288507168920,1.22326
1288507228920,1.22471
1288507288920,1.20759
1288507348920,1.21703
1288507408920,1.21713
1288507468920,1.21219
1288507528920,1.21983
1288507588920,1.22073
1288507648920,1.21960
1288507708920,1.22143
1288507768920,1.22160
1288507828920,1.21311
1288507888920,1.22259
1288507948920,1.21217
1288508008920,1.21418
1288508068920,1.22234
1288508128920,1.22218
1288508188920,1.21447
1288508248920,1.21730
1288508308920,1.21680
1288508368920,1.22752
1288508428931,1.21768
1288508488931,1.20977
1288508548931,1.22614
1288508608931,1.23661
1288508668931,1.21708
1288508728931,1.21434
1288508788931,1.21870
1288508848931,1.20531
1288508908931,1.25371
1288508968931,1.20583
1288509028931,1.21751
1288509088931,1.20988
1288509148931,1.21895
1288509208931,1.20429
1288509268931,1.20737
1288509328931,1.20554
1288509388931,1.21864
1288509448931,1.21400
1288509508931,1.21576
1288509568931,1.23085
1288509628931,1.21406
1288509688931,1.21208
1288509748931,1.21931
1288509808931,1.22486
1288509868931,1.21530
1288509928931,1.21270
1288509988931,1.22340
1288510048931,1.21314
1288510108931,1.21448
1288510168931,1.21772
1288510228931,1.21855
1288510288931,1.21204
1288510348931,1.21293
1288510408931,1.21216
1288510468931,1.21382
1288510528931,1.21143
1288510588931,1.21451
1288510648931,1.21685
1288510708931,1.21312
1288510768931,1.22108
1288510828931,1.20526
1288510888931,1.21575
1288510948931,1.21637
1288511008931,1.20379
1288511068931,1.21604
1288511128931,1.21378
1288511188931,1.21762
1288511248931,1.21694
1288511308931,1.21238
1288511368931,1.20101
1288511428931,1.21087
1288511488931,1.21134
1288511548931,1.21609
1288511608931,1.21437
1288511668931,1.20307
1288511728931,1.20841
1288511788931,1.21894
1288511848931,1.21325
1288511908931,1.20851
1288511968931,1.20847
1288512028942,1.21123
1288512088942,1.21627
1288512148942,1.22809
1288512208942,1.20586
1288512268942,1.20672
1288512328942,1.21811
1288512388942,1.21565
1288512448942,1.21608
1288512508942,1.21538
1288512568942,1.21821
1288512628942,1.21525
1288512688942,1.21725
1288512748942,1.22364
1288512808942,1.21390
1288512868942,1.21863
1288512928942,1.22524
1288512988942,1.21999
1288513048942,1.22325
1288513108942,1.22553
1288513168942,1.20990
1288513228942,1.22051
1288513288942,1.22050
1288513348942,1.21446
1288513408942,1.21040
1288513468942,1.20740
1288513528942,1.21279
1288513588942,1.22552
1288513648942,1.21872
1288513708942,1.21265
1288513768942,1.22348
1288513828942,1.21683
1288513888942,1.21683
1288513948942,1.21250
1288514008942,1.23000
1288514068942,1.21790
1288514128942,1.21630
1288514188942,1.21485
1288514248942,1.21852
1288514308942,1.21431
1288514368942,1.20671
1288514428942,1.21670
1288514488942,1.21492
1288514548942,1.21775
1288514608942,1.21516
1288514668942,1.23137
1288514728942,1.22496
1288514788942,1.21152
1288514848942,1.22120
1288514908942,1.21374
1288514968942,1.22321
1288515028942,1.21310
1288515088942,1.20815
1288515148942,1.20931
1288515208942,1.21869
1288515268942,1.21303
1288515328942,1.21701
1288515388942,1.21963
1288515448942,1.21430
1288515508942,1.19259
1288515568942,1.20855
1288515628952,1.21507
1288515688952,1.21266
1288515748952,1.21361
1288515808952,1.21933
1288515868952,1.21359
1288515928952,1.21982
1288515988952,1.20301
1288516048952,1.20424
1288516108952,1.20140
1288516168952,1.22150
1288516228952,1.21068
1288516288952,1.23024
1288516348952,1.20783
1288516408952,1.21123
1288516468952,1.21262
1288516528952,1.21917
1288516588952,1.22729
1288516648952,1.21438
1288516708952,1.21220
1288516768952,1.20663
1288516828952,1.21419
1288516888952,1.22988
1288516948952,1.22640
1288517008952,1.22162
1288517068952,1.22102
1288517128952,1.21655
1288517188952,1.22122
1288517248952,1.21665
1288517308952,1.20921
1288517368952,1.21099
1288517428952,1.22012
1288517488952,1.21786
1288517548952,1.20998
1288517608952,1.21251
1288517668952,1.20782
1288517728952,1.20333
1288517788952,1.21008
1288517848952,1.21339
1288517908952,1.20984
1288517968952,1.21886
1288518028952,1.22479
1288518088952,1.21694
1288518148952,1.21456
1288518208952,1.21233
1288518268952,1.20552
1288518328952,1.20426
1288518388952,1.21680
1288518448952,1.20772
1288518508952,1.21858
1288518568952,1.21034
1288518628952,1.21902
1288518688952,1.20973
1288518748952,1.21092
1288518808952,1.21233
1288518868952,1.21105
1288518928952,1.20737
1288518988952,1.21547
1288519048952,1.21325
1288519108952,1.21995
1288519168952,1.22101
1288519228963,1.21725
1288519288964,1.20069
1288519348964,1.20955
1288519408964,1.20682
1288519468964,1.22015
1288519528964,1.21888
1288519588964,1.21612
1288519648963,1.22381
1288519708963,1.21059
1288519768963,1.20869
1288519828963,1.21288
1288519888963,1.19831
1288519948963,1.21814
1288520008963,1.21616
1288520068963,1.21565
1288520128963,1.21697
1288520188963,1.21183
1288520248963,1.21859
1288520308963,1.20756
1288520368963,1.20905
1288520428963,1.21068
1288520488963,1.21065
1288520548963,1.21345
1288520608964,1.21043
1288520668964,1.20497
1288520728964,1.21673
1288520788964,1.21633
1288520848964,1.20926
1288520908964,1.21742
1288520968963,1.21376
1288521028963,1.21086
1288521088963,1.21313
1288521148963,1.22245
1288521208963,1.21466
1288521268963,1.21970
1288521328963,1.20687
1288521388963,1.21489
1288521448963,1.20071
1288521508963,1.21715
1288521568963,1.21205
1288521628963,1.21886
1288521688963,1.22212
1288521748963,1.24383
1288521808963,1.22031
1288521868963,1.20980
1288521928963,1.20961
1288521988964,1.21883
1288522048964,1.21908
1288522108964,1.21620
1288522168964,1.22148
1288522228964,1.21432
1288522288964,1.21350
1288522348963,1.21705
1288522408963,1.21415
1288522468963,1.21081
1288522528963,1.20391
1288522588963,1.22144
1288522648963,1.21679
1288522708963,1.20987
1288522768963,1.21158
1288522828975,1.21777
1288522888975,1.22408
1288522948975,1.21186
1288523008975,1.21183
1288523068975,1.21392
1288523128975,1.21882
1288523188975,1.21712
1288523248975,1.20573
1288523308975,1.21885
1288523368975,1.21309
1288523428975,1.21399
1288523488975,1.21138
1288523548975,1.21381
1288523608975,1.21283
1288523668975,1.21284
1288523728975,1.21145
1288523788975,1.22294
1288523848975,1.20288
1288523908975,1.21520
1288523968975,1.20390
1288524028975,1.27126
1288524088975,1.21676
1288524148975,1.21378
1288524208975,1.20967
1288524268975,1.22544
1288524328975,1.21018
1288524388975,1.21133
1288524448975,1.20382
1288524508975,1.21411
1288524568975,1.21313
1288524628975,1.20940
1288524688975,1.21445
1288524748975,1.21839
1288524808975,1.21067
1288524868975,1.21329
1288524928975,1.21422
1288524988975,1.20814
1288525048975,1.20365
1288525108975,1.21711
1288525168975,1.21650
1288525228975,1.20601
1288525288975,1.21409
1288525348975,1.20706
1288525408975,1.20368
1288525468975,1.20745
1288525528975,1.19661
1288525588975,1.21060
1288525648975,1.20911
1288525708975,1.21290
1288525768975,1.22032
1288525828975,1.21772
1288525888975,1.20523
1288525948975,1.19885
1288526008975,1.20127
1288526068975,1.19673
1288526128975,1.20957
1288526188975,1.21041
1288526248975,1.21063
1288526308975,1.20816
1288526368975,1.21873
1288526428986,1.20959
1288526488986,1.21597
1288526548986,1.21569
1288526608986,1.21795
1288526668986,1.22014
1288526728986,1.20708
1288526788986,1.22321
1288526848986,1.21182
1288526908986,1.21444
1288526968986,1.21719
1288527028986,1.21544
1288527088986,1.21999
1288527148986,1.23236
1288527208986,1.21976
1288527268986,1.21090
1288527328986,1.22016
1288527388986,1.20667
1288527448986,1.21794
1288527508986,1.19827
1288527568986,1.21205
1288527628986,1.21666
1288527688986,1.22870
1288527748986,1.21063
1288527808986,1.22069
1288527868986,1.22541
1288527928986,1.21306
1288527988986,1.20515
1288528048986,1.21869
1288528108986,1.21545
1288528168986,1.21690
1288528228986,1.21292
1288528288986,1.21629
1288528348986,1.21933
1288528408986,1.22628
1288528468986,1.21104
1288528528986,1.22072
1288528588986,1.21122
1288528648986,1.21835
1288528708986,1.23825
1288528768986,1.22006
1288528828986,1.20897
1288528888986,1.21034
1288528948986,1.22144
1288529008986,1.21468
1288529068986,1.22319
1288529128986,1.20855
1288529188986,1.21759
1288529248986,1.20949
1288529308986,1.21093
1288529368986,1.21167
1288529428986,1.20744
1288529488986,1.21602
1288529548986,1.21085
1288529608986,1.21305
1288529668986,1.21236
1288529728986,1.21537
1288529788986,1.21999
1288529848986,1.21233
1288529908986,1.21631
1288529968986,1.21514
1288530028998,1.21005
1288530088998,1.21118
1288530148998,1.21238
1288530208998,1.21099
1288530268998,1.21585
1288530328998,1.21553
1288530388998,1.21468
1288530448998,1.20614
1288530508998,1.21609
1288530568998,1.22020
1288530628998,1.21801
1288530688998,1.20534
1288530748998,1.21017
1288530808998,1.20492
1288530868998,1.21249
1288530928998,1.21130
1288530988998,1.21239
1288531048998,1.21575
1288531108998,1.21641
1288531168998,1.21942
1288531228998,1.21111
1288531288998,1.20751
1288531348998,1.21206
1288531408998,1.21513
1288532608998,1.20739
1288532668998,1.21721
1288532728998,1.21752
1288532788998,1.21547
1288532848998,1.20471
1288532908998,1.21177
1288532968998,1.21167
1288533028998,1.20555
1288533088998,1.20326
1288533148998,1.22114
1288533208998,1.21245
1288533268998,1.19834
1288533328998,1.20962
1288533388998,1.19523
1288533448998,1.22026
1288533508998,1.21635
1288533568998,1.20951
1288533629010,1.20187
1288533689010,1.20675
1288533749010,1.20783
1288533809010,1.21257
1288533869010,1.20350
1288533929010,1.20917
1288533989010,1.21025
1288534049010,1.22030
1288534109010,1.21719
1288534169010,1.21095
1288534229010,1.21266
1288534289010,1.21344
1288534349010,1.20892
1288534409010,1.21334
1288534469010,1.21003
1288534529010,1.22006
1288534589010,1.21328
1288534649010,1.21770
1288534709010,1.21567
1288534769010,1.21417
1288534829010,1.22015
1288534889010,1.20660
1288534949010,1.21120
1288535009010,1.22331
1288535069010,1.21935
1288535129010,1.21440
1288535189010,1.21812
1288535249010,1.20815
1288535309010,1.21612
1288535369010,1.21361
1288535429010,1.22118
1288535489010,1.21432
1288535549010,1.22090
1288535609010,1.22391
1288535669010,1.22639
1288535729010,1.21807
1288535789010,1.22489
1288535849010,1.23012
1288535909010,1.21721
1288535969010,1.22369
1288536029010,1.22540
1288536089010,1.21648
1288536149010,1.21661
1288536209010,1.22238
1288536269010,1.21089
1288536329010,1.21736
1288536389010,1.20916
1288536449010,1.21243
1288536509010,1.23377
1288536569010,1.22112
1288536629010,1.21669
1288536689010,1.22215
1288536749010,1.21770
1288536809010,1.22338
1288536869010,1.22318
1288536929010,1.21559
1288536989010,1.21929
1288537049010,1.22130
1288537109010,1.22056
1288537169010,1.22314
1288537229022,1.21190
1288537289022,1.21829
1288537349022,1.21774
1288537409022,1.21645
1288537469022,1.21863
1288537529022,1.28010
1288537589022,1.24841
1288537649022,1.20854
1288537709022,1.21962
1288537769022,1.21921
1288537829022,1.22587
1288537889022,1.21218
1288537949022,1.21817
1288538009022,1.21069
1288538069022,1.21491
1288538129022,1.21838
1288538189022,1.21346
1288538249022,1.22494
1288538309022,1.22149
1288538369022,1.20751
1288538429022,1.21019
1288538489022,1.21683
1288538549022,1.22517
1288538609022,1.21928
1288538669022,1.21870
1288538729022,1.22072
1288538789022,1.22405
1288538849022,1.22012
1288538909022,1.22711
1288538969022,1.20255
1288539029022,1.21781
1288539089022,1.21971
1288539149022,1.21787
1288539209022,1.21748
1288539269022,1.21389
1288539329022,1.21352
1288539389022,1.22131
1288539449022,1.21513
1288539509022,1.21805
1288539569022,1.21633
1288539629022,1.21302
1288539689022,1.19795
1288539749022,1.22131
1288539809022,1.21940
1288539869022,1.22047
1288539929022,1.21849
1288539989022,1.22263
1288540049022,1.21308
1288540109022,1.22271
1288540169022,1.21656
1288540229022,1.21620
1288540289022,1.21517
1288540349022,1.20768
1288540409022,1.21437
1288540469022,1.21027
1288540529022,1.22144
1288540589022,1.20299
1288540649022,1.20130
1288540709022,1.22646
1288540769022,1.21096
1288540829035,1.19943
1288540889035,1.21460
1288540949035,1.21083
1288541009035,1.21298
1288541069035,1.21192
1288541129035,1.21085
1288541189035,1.22337
1288541249035,1.20139
1288541309035,1.19721
1288541369035,1.21531
1288541429035,1.20363
1288541489035,1.20017
1288541549035,1.21273
1288541609035,1.20924
1288541669035,1.21229
1288541729035,1.21624
1288541789035,1.20206
1288541849035,1.20622
1288541909035,1.20980
1288541969035,1.19996
1288542029035,1.21397
1288542089035,1.21252
1288542149035,1.21995
1288542209035,1.20023
1288542269035,1.20448
1288542329035,1.21431
1288542389035,1.20597
1288542449035,1.20937
1288542509035,1.21439
1288542569035,1.19527
1288542629035,1.21088
1288542689035,1.20074
1288542749035,1.21609
1288542809035,1.19475
1288542869035,1.20585
1288542929035,1.21256
1288542989035,1.20234
1288543049035,1.20018
1288543109035,1.19929
1288543169035,1.20484
1288543229035,1.19430
1288543289035,1.20130
1288543349035,1.20375
1288543409035,1.20616
1288543469035,1.19232
1288543529035,1.20346
1288543589035,1.20569
1288543649035,1.19145
1288543709035,1.20395
1288543769035,1.22176
1288543829035,1.18143
1288543889035,1.20193
1288543949035,1.20609
1288544009035,1.20181
1288544069035,1.19950
1288544129035,1.19704
1288544189035,1.19172
1288544249035,1.21411
1288544309035,1.20638
1288544369035,1.20437
1288544429047,1.19915
1288544489047,1.20638
1288544549047,1.19835
1288544609047,1.19421
1288544669047,1.20177
1288544729047,1.19871
1288544789047,1.18848
1288544849047,1.18694
1288544909047,1.19651
1288544969047,1.19764
1288545029047,1.20664
1288545089047,1.20123
1288545149047,1.21035
1288545209047,1.19370
1288545269047,1.19801
1288545329047,1.20453
1288545389047,1.19316
1288545449047,1.19226
1288545509047,1.21166
1288545569047,1.19946
1288545629047,1.21064
1288545689047,1.19988
1288545749047,1.19465
1288545809047,1.19012
1288545869047,1.20260
1288545929047,1.18537
1288545989047,1.20504
1288546049047,1.19776
1288546109047,1.18886
1288546169047,1.19816
1288546229047,1.17982
1288546289047,1.20617
1288546349047,1.20269
1288546409047,1.20078
1288546469047,1.18729
1288546529047,1.19382
1288546589047,1.19635
1288546649047,1.19373
1288546709047,1.19149
1288546769047,1.18975
1288546829047,1.18782
1288546889047,1.19974
1288546949047,1.19862
1288547009047,1.19853
1288547069047,1.18889
1288547129047,1.19695
1288547189047,1.20371
1288547249047,1.19597
1288547309047,1.18639
1288547369047,1.18963
1288547429047,1.19976
1288547489047,1.18242
1288547549047,1.19478
1288547609047,1.19385
1288547669047,1.17775
1288547729047,1.19328
1288547789047,1.18541
1288547849047,1.18641
1288547909047,1.18482
1288547969047,1.19914
1288548029059,1.18858
1288548089059,1.19130
1288548149059,1.19369
1288548209059,1.18512
1288548269059,1.18873
1288548329059,1.19893
1288548389059,1.20256
1288548449059,1.19310
1288548509059,1.19091
1288548569059,1.20091
1288548629059,1.21025
1288548689059,1.19586
1288548749059,1.19316
1288548809059,1.19333
1288548869059,1.18812
1288548929059,1.19557
1288548989059,1.20316
1288549049059,1.19295
1288549109059,1.19744
1288549169059,1.19462
1288549229059,1.20038
1288549289059,1.19650
1288549349059,1.19803
1288549409059,1.19057
1288549469059,1.19857
1288549529059,1.19328
1288549589059,1.18679
1288549649059,1.19506
1288549709059,1.19883